QPF
0.02 0.02 0.02 0.02 0.02 0.02 0.02 0.02 0.02 0.02 0.01 0.01 0.01 0.02 0.01 0.01 0.01 0.01 0.02 0.04 0.05 0.07 0.10 0.12 0.14 0.13 0.11 0.11 0.10 0.09 0.09 0.10 0.10 0.10 0.10 0.10 0.10 0.10 0.10 0.09 0.09 0.08 0.07
0.03 0.03 0.03 0.02 0.03 0.02 0.01 0.02 0.03 0.03 0.02 0.02 0.01 0.01 0.01 0.01 0.01 0.01 0.01 0.03 0.03 0.05 0.07 0.11 0.14 0.17 0.14 0.14 0.13 0.09 0.09 0.08 0.08 0.09 0.09 0.09 0.09 0.09 0.09 0.09 0.09 0.08 0.07
0.03 0.02 0.03 0.03 0.03 0.02 0.01 0.01 0.02 0.03 0.03 0.02 0.01 0.02 0.02 0.02 0.02 0.02 0.02 0.02 0.02 0.03 0.06 0.06 0.08 0.10 0.12 0.13 0.13 0.11 0.10 0.09 0.08 0.09 0.10 0.09 0.09 0.09 0.10 0.10 0.10 0.10 0.09
0.03 0.02 0.03 0.03 0.03 0.03 0.03 0.02 0.02 0.03 0.03 0.02 0.01 0.01 0.01 0.01 0.02 0.03 0.03 0.03 0.03 0.03 0.05 0.06 0.06 0.07 0.09 0.11 0.10 0.09 0.09 0.10 0.09 0.09 0.09 0.10 0.10 0.08 0.08 0.09 0.11 0.10 0.09
0.03 0.02 0.03 0.04 0.04 0.04 0.03 0.03 0.03 0.04 0.03 0.02 0.02 0.02 0.02 0.01 0.02 0.02 0.03 0.02 0.02 0.02 0.04 0.05 0.06 0.07 0.08 0.08 0.07 0.06 0.06 0.06 0.06 0.06 0.08 0.10 0.10 0.10 0.09 0.09 0.09 0.09 0.08
0.02 0.02 0.02 0.03 0.03 0.04 0.05 0.05 0.04 0.03 0.03 0.03 0.03 0.03 0.02 0.02 0.02 0.02 0.02 0.02 0.02 0.02 0.04 0.05 0.06 0.06 0.06 0.06 0.07 0.07 0.05 0.05 0.05 0.06 0.06 0.08 0.09 0.08 0.08 0.08 0.08 0.08 0.08
0.03 0.02 0.02 0.03 0.03 0.04 0.06 0.05 0.04 0.04 0.03 0.03 0.03 0.02 0.02 0.02 0.02 0.02 0.02 0.02 0.02 0.03 0.03 0.04 0.05 0.07 0.06 0.05 0.05 0.05 0.05 0.06 0.06 0.06 0.06 0.07 0.08 0.08 0.08 0.08 0.08 0.09 0.10
0.04 0.04 0.03 0.02 0.03 0.04 0.05 0.04 0.04 0.04 0.04 0.03 0.03 0.03 0.02 0.02 0.02 0.02 0.02 0.02 0.03 0.03 0.03 0.03 0.04 0.04 0.04 0.04 0.04 0.04 0.05 0.06 0.07 0.06 0.06 0.07 0.07 0.07 0.09 0.09 0.09 0.09 0.10
0.05 0.04 0.03 0.03 0.02 0.02 0.03 0.04 0.05 0.04 0.03 0.02 0.02 0.03 0.02 0.02 0.02 0.02 0.02 0.03 0.03 0.03 0.03 0.03 0.02 0.02 0.03 0.03 0.03 0.03 0.04 0.05 0.06 0.06 0.06 0.05 0.05 0.05 0.06 0.09 0.11 0.11 0.11
0.06 0.05 0.04 0.03 0.02 0.02 0.02 0.03 0.03 0.03 0.02 0.02 0.02 0.01 0.01 0.02 0.02 0.02 0.02 0.02 0.02 0.02 0.02 0.03 0.03 0.03 0.04 0.04 0.04 0.03 0.03 0.04 0.06 0.07 0.06 0.06 0.05 0.04 0.04 0.06 0.09 0.11 0.12
0.05 0.05 0.04 0.03 0.03 0.02 0.02 0.01 0.02 0.02 0.02 0.01 0.01 0.01 0.01 0.01 0.02 0.02 0.02 0.01 0.02 0.02 0.02 0.03 0.04 0.05 0.06 0.06 0.05 0.05 0.05 0.05 0.09 0.10 0.07 0.05 0.05 0.06 0.05 0.05 0.07 0.09 0.11
0.04 0.05 0.05 0.05 0.04 0.04 0.03 0.02 0.03 0.02 0.02 0.01 0.01 0.02 0.02 0.02 0.02 0.02 0.01 0.01 0.01 0.02 0.02 0.03 0.04 0.04 0.05 0.06 0.05 0.05 0.04 0.05 0.07 0.12 0.15 0.11 0.06 0.06 0.05 0.05 0.06 0.08 0.09
0.04 0.05 0.06 0.05 0.04 0.04 0.04 0.03 0.04 0.03 0.02 0.01 0.01 0.02 0.02 0.01 0.01 0.01 0.01 0.01 0.00 0.01 0.01 0.02 0.03 0.04 0.04 0.04 0.05 0.05 0.03 0.03 0.04 0.05 0.09 0.14 0.13 0.10 0.06 0.05 0.05 0.05 0.06
0.05 0.07 0.08 0.07 0.05 0.04 0.04 0.03 0.03 0.03 0.03 0.02 0.02 0.02 0.02 0.01 0.01 0.01 0.01 0.01 0.01 0.01 0.02 0.01 0.01 0.03 0.04 0.04 0.05 0.05 0.04 0.04 0.04 0.05 0.05 0.07 0.08 0.10 0.09 0.06 0.05 0.05 0.06
0.06 0.06 0.05 0.05 0.04 0.04 0.03 0.03 0.03 0.04 0.04 0.04 0.03 0.02 0.01 0.01 0.01 0.01 0.01 0.01 0.02 0.02 0.02 0.03 0.03 0.02 0.03 0.04 0.05 0.05 0.04 0.03 0.04 0.04 0.05 0.05 0.06 0.06 0.08 0.07 0.05 0.04 0.04
0.05 0.04 0.03 0.03 0.03 0.03 0.04 0.05 0.08 0.10 0.10 0.09 0.08 0.05 0.03 0.03 0.02 0.02 0.01 0.01 0.01 0.02 0.03 0.03 0.04 0.05 0.04 0.05 0.07 0.06 0.05 0.03 0.03 0.03 0.05 0.05 0.06 0.07 0.07 0.08 0.08 0.05 0.04
0.02 0.02 0.02 0.02 0.02 0.02 0.03 0.05 0.07 0.10 0.09 0.08 0.06 0.04 0.03 0.03 0.03 0.03 0.03 0.02 0.02 0.02 0.02 0.02 0.02 0.04 0.05 0.04 0.06 0.06 0.04 0.03 0.03 0.03 0.03 0.05 0.06 0.06 0.06 0.05 0.07 0.07 0.05
0.02 0.02 0.01 0.01 0.02 0.02 0.02 0.02 0.03 0.03 0.03 0.05 0.06 0.05 0.04 0.04 0.03 0.03 0.03 0.03 0.03 0.03 0.03 0.03 0.02 0.02 0.04 0.04 0.05 0.06 0.04 0.03 0.03 0.04 0.04 0.05 0.06 0.06 0.06 0.06 0.06 0.08 0.08
0.01 0.01 0.01 0.01 0.02 0.01 0.01 0.01 0.01 0.01 0.01 0.02 0.03 0.03 0.03 0.03 0.03 0.03 0.03 0.03 0.02 0.03 0.03 0.04 0.03 0.03 0.03 0.03 0.03 0.06 0.05 0.02 0.02 0.03 0.04 0.05 0.05 0.06 0.07 0.08 0.07 0.07 0.10
0.01 0.01 0.01 0.01 0.01 0.01 0.01 0.01 0.01 0.01 0.01 0.02 0.02 0.02 0.02 0.02 0.03 0.03 0.03 0.03 0.03 0.03 0.04 0.06 0.05 0.04 0.02 0.02 0.02 0.04 0.04 0.03 0.02 0.02 0.04 0.05 0.05 0.05 0.06 0.06 0.07 0.07 0.09
0.02 0.02 0.02 0.03 0.03 0.02 0.02 0.01 0.02 0.02 0.02 0.02 0.02 0.02 0.02 0.02 0.03 0.03 0.02 0.03 0.03 0.04 0.04 0.05 0.05 0.03 0.03 0.02 0.02 0.02 0.04 0.05 0.03 0.02 0.03 0.04 0.04 0.04 0.04 0.05 0.06 0.06 0.06
0.01 0.02 0.03 0.04 0.04 0.03 0.03 0.02 0.02 0.01 0.01 0.02 0.02 0.02 0.02 0.02 0.03 0.03 0.02 0.02 0.03 0.03 0.03 0.04 0.04 0.03 0.04 0.03 0.02 0.03 0.04 0.06 0.05 0.02 0.01 0.02 0.02 0.03 0.04 0.04 0.04 0.04 0.04
0.01 0.02 0.03 0.04 0.04 0.03 0.02 0.02 0.02 0.02 0.01 0.01 0.01 0.01 0.01 0.01 0.01 0.01 0.02 0.02 0.02 0.03 0.03 0.04 0.04 0.05 0.05 0.04 0.03 0.03 0.03 0.04 0.03 0.02 0.01 0.01 0.01 0.01 0.02 0.02 0.03 0.03 0.03
0.01 0.01 0.01 0.02 0.03 0.02 0.02 0.02 0.02 0.01 0.01 0.01 0.01 0.01 0.01 0.00 0.01 0.01 0.01 0.01 0.01 0.01 0.02 0.02 0.02 0.02 0.01 0.01 0.02 0.02 0.02 0.02 0.03 0.03 0.03 0.03 0.02 0.02 0.02 0.02 0.02 0.02 0.02
0.02 0.03 0.02 0.02 0.03 0.03 0.03 0.02 0.01 0.01 0.01 0.02 0.01 0.00 0.00 0.00 0.00 0.00 0.00 0.01 0.01 0.01 0.02 0.02 0.02 0.01 0.01 0.01 0.02 0.03 0.03 0.03 0.03 0.03 0.03 0.04 0.04 0.03 0.03 0.03 0.03 0.03 0.02
0.02 0.03 0.03 0.03 0.04 0.05 0.04 0.02 0.01 0.01 0.01 0.03 0.03 0.01 0.01 0.00 0.00 0.00 0.00 0.01 0.01 0.01 0.01 0.01 0.02 0.02 0.02 0.02 0.02 0.02 0.02 0.03 0.03 0.03 0.03 0.04 0.04 0.04 0.03 0.03 0.03 0.03 0.02
MSLP
1013.94 1014.04 1014.12 1014.20 1014.31 1014.44 1014.61 1014.81 1015.02 1015.21 1015.36 1015.45 1015.48 1015.45 1015.35 1015.23 1015.08 1014.95 1014.83 1014.75 1014.70 1014.70 1014.73 1014.79 1014.89 1015.02 1015.17 1015.35 1015.54 1015.74 1015.94 1016.15 1016.34 1016.52 1016.70 1016.86 1017.03 1017.19 1017.35 1017.53 1017.71 1017.90 1018.09
1013.66 1013.70 1013.75 1013.81 1013.92 1014.07 1014.27 1014.51 1014.75 1014.98 1015.17 1015.29 1015.32 1015.28 1015.17 1015.02 1014.84 1014.67 1014.53 1014.43 1014.38 1014.39 1014.45 1014.54 1014.66 1014.81 1014.96 1015.13 1015.31 1015.49 1015.67 1015.86 1016.05 1016.24 1016.43 1016.60 1016.77 1016.92 1017.07 1017.22 1017.37 1017.53 1017.71
1013.30 1013.30 1013.33 1013.39 1013.51 1013.70 1013.93 1014.21 1014.49 1014.76 1014.97 1015.11 1015.15 1015.10 1014.97 1014.79 1014.58 1014.38 1014.22 1014.11 1014.07 1014.09 1014.16 1014.28 1014.43 1014.59 1014.75 1014.92 1015.09 1015.26 1015.44 1015.64 1015.84 1016.04 1016.24 1016.44 1016.61 1016.76 1016.90 1017.02 1017.13 1017.25 1017.38
1012.83 1012.81 1012.83 1012.91 1013.06 1013.28 1013.55 1013.87 1014.19 1014.48 1014.71 1014.86 1014.91 1014.87 1014.73 1014.54 1014.32 1014.11 1013.93 1013.82 1013.77 1013.80 1013.89 1014.02 1014.18 1014.36 1014.53 1014.70 1014.88 1015.06 1015.25 1015.46 1015.69 1015.93 1016.16 1016.37 1016.56 1016.71 1016.83 1016.92 1016.99 1017.06 1017.14
1012.24 1012.20 1012.22 1012.33 1012.51 1012.77 1013.08 1013.43 1013.77 1014.09 1014.35 1014.52 1014.59 1014.56 1014.44 1014.26 1014.05 1013.85 1013.68 1013.56 1013.52 1013.55 1013.64 1013.78 1013.95 1014.13 1014.32 1014.50 1014.69 1014.89 1015.12 1015.36 1015.62 1015.89 1016.16 1016.40 1016.60 1016.75 1016.86 1016.92 1016.95 1016.96 1016.98
1011.54 1011.48 1011.51 1011.63 1011.85 1012.13 1012.48 1012.85 1013.22 1013.56 1013.85 1014.05 1014.16 1014.18 1014.11 1013.97 1013.80 1013.62 1013.47 1013.37 1013.33 1013.36 1013.45 1013.58 1013.75 1013.94 1014.13 1014.33 1014.54 1014.78 1015.03 1015.32 1015.62 1015.93 1016.23 1016.50 1016.71 1016.86 1016.95 1016.98 1016.96 1016.92 1016.87
1010.77 1010.69 1010.72 1010.85 1011.08 1011.38 1011.75 1012.14 1012.54 1012.91 1013.23 1013.48 1013.65 1013.73 1013.74 1013.68 1013.58 1013.45 1013.34 1013.26 1013.23 1013.25 1013.33 1013.45 1013.60 1013.78 1013.98 1014.20 1014.44 1014.71 1015.01 1015.33 1015.67 1016.02 1016.34 1016.62 1016.84 1016.99 1017.05 1017.05 1016.99 1016.90 1016.79
1010.00 1009.90 1009.91 1010.03 1010.26 1010.58 1010.95 1011.35 1011.77 1012.17 1012.53 1012.85 1013.09 1013.27 1013.37 1013.41 1013.39 1013.34 1013.28 1013.22 1013.20 1013.21 1013.27 1013.36 1013.50 1013.67 1013.88 1014.11 1014.38 1014.68 1015.02 1015.38 1015.76 1016.12 1016.46 1016.74 1016.95 1017.08 1017.13 1017.09 1017.00 1016.87 1016.70
1009.34 1009.20 1009.17 1009.28 1009.49 1009.80 1010.16 1010.57 1010.99 1011.42 1011.83 1012.20 1012.54 1012.81 1013.02 1013.16 1013.24 1013.26 1013.25 1013.23 1013.21 1013.21 1013.24 1013.31 1013.43 1013.60 1013.80 1014.05 1014.35 1014.68 1015.05 1015.43 1015.83 1016.20 1016.54 1016.81 1017.01 1017.11 1017.13 1017.07 1016.95 1016.78 1016.58
1008.87 1008.67 1008.61 1008.68 1008.86 1009.14 1009.48 1009.87 1010.29 1010.73 1011.17 1011.60 1012.00 1012.36 1012.67 1012.90 1013.07 1013.16 1013.20 1013.20 1013.19 1013.18 1013.20 1013.25 1013.35 1013.51 1013.72 1013.99 1014.30 1014.66 1015.05 1015.45 1015.85 1016.23 1016.55 1016.80 1016.98 1017.06 1017.06 1016.97 1016.83 1016.65 1016.43
1008.62 1008.38 1008.27 1008.30 1008.44 1008.67 1008.97 1009.32 1009.72 1010.15 1010.59 1011.05 1011.50 1011.92 1012.29 1012.60 1012.83 1012.98 1013.06 1013.09 1013.08 1013.07 1013.07 1013.12 1013.21 1013.37 1013.59 1013.88 1014.21 1014.59 1014.99 1015.40 1015.80 1016.16 1016.47 1016.71 1016.86 1016.93 1016.91 1016.82 1016.68 1016.49 1016.27
1008.59 1008.32 1008.17 1008.14 1008.23 1008.40 1008.64 1008.94 1009.29 1009.67 1010.09 1010.54 1010.99 1011.44 1011.84 1012.19 1012.47 1012.66 1012.77 1012.82 1012.83 1012.83 1012.84 1012.88 1012.98 1013.15 1013.39 1013.69 1014.05 1014.44 1014.85 1015.26 1015.66 1016.01 1016.31 1016.53 1016.67 1016.74 1016.72 1016.64 1016.51 1016.34 1016.14
1008.74 1008.44 1008.26 1008.18 1008.21 1008.31 1008.48 1008.69 1008.96 1009.28 1009.64 1010.04 1010.46 1010.88 1011.29 1011.65 1011.95 1012.17 1012.31 1012.38 1012.41 1012.43 1012.46 1012.53 1012.66 1012.85 1013.11 1013.43 1013.80 1014.20 1014.62 1015.04 1015.43 1015.78 1016.07 1016.30 1016.45 1016.53 1016.54 1016.48 1016.38 1016.25 1016.08
1008.99 1008.67 1008.46 1008.34 1008.30 1008.33 1008.41 1008.54 1008.71 1008.93 1009.20 1009.52 1009.88 1010.26 1010.63 1010.98 1011.28 1011.51 1011.68 1011.79 1011.86 1011.92 1011.99 1012.10 1012.26 1012.48 1012.77 1013.11 1013.49 1013.91 1014.33 1014.74 1015.13 1015.49 1015.80 1016.04 1016.22 1016.34 1016.39 1016.38 1016.32 1016.23 1016.10
1009.24 1008.92 1008.69 1008.53 1008.44 1008.40 1008.39 1008.42 1008.49 1008.60 1008.76 1008.99 1009.26 1009.58 1009.90 1010.23 1010.52 1010.77 1010.96 1011.12 1011.24 1011.36 1011.48 1011.65 1011.85 1012.11 1012.43 1012.78 1013.17 1013.59 1014.01 1014.42 1014.82 1015.19 1015.51 1015.80 1016.02 1016.19 1016.29 1016.34 1016.34 1016.30 1016.21
1009.44 1009.13 1008.89 1008.70 1008.57 1008.46 1008.38 1008.31 1008.28 1008.29 1008.36 1008.48 1008.67 1008.92 1009.19 1009.49 1009.77 1010.04 1010.27 1010.47 1010.66 1010.84 1011.03 1011.25 1011.51 1011.80 1012.14 1012.50 1012.89 1013.30 1013.71 1014.12 1014.52 1014.90 1015.26 1015.58 1015.86 1016.09 1016.25 1016.36 1016.42 1016.42 1016.39
1009.55 1009.25 1009.01 1008.81 1008.64 1008.49 1008.35 1008.22 1008.12 1008.04 1008.03 1008.08 1008.20 1008.38 1008.62 1008.89 1009.17 1009.45 1009.72 1009.98 1010.23 1010.47 1010.73 1011.00 1011.30 1011.62 1011.96 1012.33 1012.71 1013.10 1013.49 1013.89 1014.29 1014.68 1015.06 1015.42 1015.74 1016.02 1016.24 1016.40 1016.51 1016.56 1016.56
1009.59 1009.30 1009.07 1008.87 1008.69 1008.52 1008.35 1008.18 1008.03 1007.91 1007.85 1007.84 1007.92 1008.06 1008.27 1008.53 1008.81 1009.11 1009.42 1009.72 1010.02 1010.32 1010.62 1010.93 1011.26 1011.59 1011.94 1012.29 1012.64 1013.00 1013.37 1013.75 1014.13 1014.52 1014.91 1015.29 1015.64 1015.96 1016.22 1016.42 1016.56 1016.64 1016.67
1009.59 1009.33 1009.11 1008.93 1008.76 1008.59 1008.42 1008.24 1008.08 1007.95 1007.86 1007.84 1007.90 1008.03 1008.22 1008.47 1008.76 1009.08 1009.41 1009.74 1010.07 1010.40 1010.73 1011.06 1011.39 1011.73 1012.06 1012.39 1012.71 1013.04 1013.37 1013.71 1014.07 1014.43 1014.81 1015.19 1015.55 1015.87 1016.15 1016.36 1016.52 1016.61 1016.67
1009.62 1009.38 1009.19 1009.03 1008.88 1008.74 1008.59 1008.44 1008.30 1008.18 1008.11 1008.10 1008.16 1008.29 1008.48 1008.73 1009.02 1009.34 1009.67 1010.01 1010.34 1010.68 1011.02 1011.35 1011.67 1011.99 1012.30 1012.60 1012.89 1013.17 1013.46 1013.76 1014.08 1014.41 1014.75 1015.10 1015.43 1015.74 1016.00 1016.20 1016.35 1016.46 1016.53
1009.71 1009.50 1009.34 1009.21 1009.10 1008.99 1008.88 1008.77 1008.67 1008.60 1008.56 1008.58 1008.66 1008.80 1008.99 1009.24 1009.52 1009.83 1010.14 1010.47 1010.79 1011.11 1011.43 1011.74 1012.04 1012.33 1012.61 1012.88 1013.13 1013.38 1013.63 1013.88 1014.15 1014.43 1014.72 1015.01 1015.29 1015.55 1015.77 1015.95 1016.08 1016.17 1016.24
1009.91 1009.73 1009.60 1009.50 1009.43 1009.36 1009.29 1009.23 1009.18 1009.15 1009.16 1009.21 1009.31 1009.47 1009.67 1009.91 1010.17 1010.45 1010.74 1011.03 1011.31 1011.60 1011.88 1012.16 1012.43 1012.70 1012.95 1013.19 1013.42 1013.63 1013.84 1014.05 1014.26 1014.48 1014.70 1014.92 1015.14 1015.33 1015.49 1015.61 1015.71 1015.78 1015.85
1010.22 1010.07 1009.97 1009.90 1009.85 1009.82 1009.79 1009.77 1009.76 1009.78 1009.82 1009.91 1010.04 1010.20 1010.40 1010.63 1010.87 1011.12 1011.36 1011.60 1011.84 1012.08 1012.32 1012.56 1012.80 1013.04 1013.27 1013.49 1013.70 1013.88 1014.06 1014.23 1014.39 1014.54 1014.70 1014.84 1014.97 1015.09 1015.18 1015.25 1015.30 1015.35 1015.41
1010.64 1010.51 1010.43 1010.38 1010.36 1010.35 1010.34 1010.35 1010.37 1010.41 1010.48 1010.58 1010.73 1010.90 1011.09 1011.30 1011.52 1011.73 1011.93 1012.12 1012.31 1012.50 1012.70 1012.91 1013.12 1013.34 1013.55 1013.76 1013.95 1014.12 1014.27 1014.41 1014.52 1014.62 1014.70 1014.77 1014.82 1014.86 1014.88 1014.90 1014.91 1014.93 1014.97
1011.14 1011.04 1010.98 1010.94 1010.92 1010.91 1010.91 1010.92 1010.95 1011.00 1011.08 1011.19 1011.33 1011.50 1011.69 1011.88 1012.07 1012.24 1012.41 1012.56 1012.71 1012.86 1013.02 1013.19 1013.38 1013.58 1013.78 1013.98 1014.17 1014.33 1014.46 1014.56 1014.64 1014.68 1014.70 1014.71 1014.69 1014.67 1014.63 1014.59 1014.57 1014.55 1014.57
1011.71 1011.63 1011.58 1011.55 1011.52 1011.50 1011.49 1011.48 1011.49 1011.53 1011.60 1011.71 1011.84 1012.00 1012.18 1012.35 1012.52 1012.67 1012.80 1012.92 1013.03 1013.15 1013.28 1013.42 1013.59 1013.78 1013.97 1014.16 1014.33 1014.48 1014.60 1014.68 1014.72 1014.72 1014.70 1014.65 1014.58 1014.51 1014.43 1014.35 1014.29 1014.25 1014.25
Thickness
5703 5700 5698 5696 5694 5693 5692 5691 5690 5689 5688 5688 5687 5688 5688 5688 5687 5687 5688 5689 5690 5690 5691 5691 5691 5692 5692 5693 5693 5693 5694 5694 5693 5694 5694 5694 5694 5695 5695 5694 5694 5693 5693
5700 5697 5694 5692 5689 5688 5687 5685 5684 5684 5683 5683 5683 5683 5683 5683 5683 5683 5683 5683 5684 5685 5685 5686 5686 5686 5687 5688 5689 5689 5690 5690 5690 5691 5691 5691 5691 5691 5691 5691 5691 5691 5690
5696 5693 5689 5687 5685 5684 5682 5681 5680 5678 5678 5678 5677 5678 5678 5678 5678 5678 5677 5677 5678 5678 5679 5680 5680 5681 5682 5683 5684 5684 5685 5685 5686 5687 5688 5688 5688 5688 5687 5688 5687 5687 5686
5692 5688 5685 5683 5681 5679 5678 5676 5674 5672 5671 5671 5671 5672 5672 5672 5672 5671 5671 5670 5671 5671 5672 5673 5673 5674 5675 5676 5678 5678 5680 5680 5681 5681 5682 5683 5683 5683 5683 5683 5683 5683 5682
5687 5684 5681 5678 5676 5674 5672 5671 5668 5666 5666 5665 5666 5666 5666 5665 5665 5664 5663 5663 5663 5663 5664 5664 5665 5666 5668 5669 5671 5672 5673 5674 5675 5676 5677 5678 5678 5678 5678 5678 5678 5678 5678
5683 5680 5677 5674 5672 5669 5666 5664 5662 5661 5660 5659 5659 5659 5658 5658 5657 5656 5656 5656 5656 5656 5656 5656 5657 5658 5659 5661 5662 5665 5666 5668 5668 5670 5671 5672 5673 5673 5673 5673 5673 5673 5673
5679 5676 5673 5670 5667 5664 5661 5659 5657 5655 5653 5652 5651 5650 5651 5650 5650 5649 5649 5649 5649 5648 5648 5648 5649 5649 5650 5652 5654 5656 5658 5660 5661 5663 5664 5665 5666 5667 5667 5667 5668 5668 5668
5675 5673 5669 5666 5663 5660 5657 5654 5652 5649 5647 5645 5643 5641 5639 5640 5641 5642 5641 5641 5641 5640 5641 5641 5641 5641 5641 5643 5645 5647 5650 5651 5653 5655 5656 5658 5659 5660 5661 5661 5662 5662 5663
5672 5669 5666 5662 5659 5656 5653 5650 5647 5644 5641 5638 5636 5633 5630 5629 5631 5633 5633 5633 5633 5633 5633 5634 5634 5634 5634 5635 5637 5639 5642 5643 5645 5647 5649 5650 5651 5653 5653 5654 5655 5656 5657
5668 5665 5662 5659 5656 5653 5650 5647 5644 5641 5637 5633 5630 5628 5625 5623 5621 5623 5625 5625 5625 5626 5626 5627 5628 5628 5628 5628 5630 5633 5634 5636 5637 5639 5641 5642 5644 5645 5646 5647 5649 5650 5652
5663 5661 5659 5656 5652 5649 5646 5643 5640 5637 5633 5629 5626 5623 5620 5616 5615 5614 5616 5618 5618 5619 5620 5621 5622 5622 5622 5623 5624 5626 5627 5629 5630 5631 5633 5635 5636 5637 5639 5640 5641 5643 5645
5657 5656 5654 5651 5648 5645 5642 5639 5636 5633 5629 5625 5622 5618 5615 5613 5610 5608 5609 5610 5610 5612 5614 5615 5616 5616 5616 5617 5618 5620 5621 5622 5623 5625 5626 5628 5629 5630 5631 5632 5633 5635 5637
5652 5651 5649 5646 5644 5642 5639 5636 5632 5629 5625 5622 5619 5615 5611 5609 5606 5604 5603 5603 5603 5606 5607 5609 5610 5610 5610 5611 5611 5613 5614 5615 5617 5618 5619 5621 5622 5623 5624 5625 5626 5627 5629
5648 5646 5645 5643 5640 5637 5635 5632 5628 5625 5622 5618 5615 5612 5608 5605 5602 5600 5598 5597 5598 5600 5601 5603 5604 5604 5604 5604 5606 5607 5607 5609 5610 5611 5612 5613 5615 5616 5617 5618 5619 5620 5621
5644 5642 5640 5638 5636 5633 5630 5627 5624 5621 5618 5615 5612 5609 5605 5602 5599 5596 5594 5592 5591 5594 5597 5597 5597 5599 5599 5599 5601 5601 5602 5603 5604 5606 5606 5607 5608 5610 5610 5611 5612 5614 5614
5640 5637 5635 5633 5631 5628 5626 5623 5620 5617 5614 5612 5609 5605 5602 5599 5596 5594 5591 5588 5587 5587 5589 5592 5592 5593 5593 5595 5596 5596 5597 5598 5598 5600 5601 5602 5602 5604 5605 5606 5607 5608 5608
5635 5633 5630 5628 5626 5623 5621 5619 5616 5614 5611 5609 5605 5603 5600 5597 5594 5591 5589 5586 5584 5583 5584 5587 5587 5588 5589 5590 5591 5591 5591 5592 5593 5594 5595 5596 5597 5598 5600 5601 5603 5603 5604
5631 5628 5626 5623 5621 5619 5617 5615 5613 5611 5608 5605 5602 5600 5597 5595 5592 5589 5586 5584 5583 5581 5580 5582 5584 5584 5585 5586 5586 5586 5587 5588 5588 5590 5590 5590 5592 5593 5594 5596 5597 5599 5600
5627 5624 5621 5619 5617 5615 5613 5612 5609 5607 5604 5602 5599 5597 5595 5592 5590 5587 5585 5583 5581 5580 5578 5578 5580 5580 5581 5581 5581 5582 5582 5583 5584 5585 5585 5586 5587 5588 5589 5591 5592 5594 5595
5622 5619 5617 5615 5614 5612 5610 5608 5606 5603 5601 5599 5597 5595 5593 5591 5589 5586 5584 5583 5581 5579 5577 5576 5576 5577 5577 5578 5577 5577 5578 5578 5579 5580 5581 5582 5583 5584 5585 5587 5588 5589 5590
5619 5616 5614 5613 5611 5609 5607 5605 5603 5601 5598 5596 5595 5593 5591 5590 5588 5586 5584 5582 5579 5577 5576 5575 5575 5575 5575 5574 5574 5573 5573 5573 5574 5575 5576 5578 5579 5580 5581 5582 5583 5585 5585
5616 5613 5611 5610 5608 5607 5605 5602 5600 5598 5596 5594 5592 5591 5590 5589 5588 5585 5583 5581 5579 5576 5575 5573 5573 5572 5573 5572 5571 5569 5568 5568 5570 5572 5571 5574 5574 5575 5577 5578 5580 5581 5581
5613 5610 5609 5607 5605 5604 5602 5600 5599 5596 5594 5592 5590 5589 5588 5588 5585 5583 5582 5580 5578 5576 5573 5572 5571 5571 5570 5570 5568 5567 5566 5565 5567 5568 5566 5570 5571 5572 5574 5575 5576 5577 5577
5610 5608 5606 5605 5603 5603 5601 5599 5597 5595 5593 5591 5589 5587 5585 5584 5582 5580 5579 5578 5577 5575 5573 5571 5570 5570 5569 5567 5565 5564 5563 5562 5564 5564 5563 5565 5568 5569 5572 5572 5573 5573 5574
5608 5606 5604 5603 5602 5601 5599 5598 5596 5594 5591 5589 5588 5586 5584 5581 5580 5577 5576 5575 5574 5574 5572 5570 5568 5567 5567 5565 5562 5560 5559 5559 5562 5564 5562 5562 5566 5566 5568 5569 5570 5570 5570
5606 5604 5603 5602 5600 5599 5598 5596 5594 5591 5589 5588 5587 5585 5583 5580 5578 5575 5573 5571 5570 5571 5569 5568 5566 5565 5564 5563 5561 5558 5558 5557 5558 5560 5561 5559 5562 5561 5564 5567 5567 5567 5567